TimeCDT,TemperatureF,Dew PointF,Humidity,Sea Level PressureIn,VisibilityMPH,Wind Direction,Wind SpeedMPH,Gust SpeedMPH,PrecipitationIn,Events,Conditions,WindDirDegrees,DateUTC
12:13 AM,62.6,48.2,59,29.74,10.0,SW,4.6,-,N/A,,Clear,220,2013-05-14 05:13:00
12:32 AM,62.6,48.2,59,29.74,10.0,Calm,Calm,-,N/A,,Clear,0,2013-05-14 05:32:00
12:52 AM,62.6,48.2,59,29.74,10.0,Calm,Calm,-,N/A,,Clear,0,2013-05-14 05:52:00
1:13 AM,60.8,48.2,63,29.74,10.0,SW,3.5,-,N/A,,Clear,220,2013-05-14 06:13:00
1:32 AM,59.0,48.2,67,29.74,10.0,Calm,Calm,-,N/A,,Clear,0,2013-05-14 06:32:00
1:53 AM,59.0,48.2,67,29.74,10.0,Calm,Calm,-,N/A,,Clear,0,2013-05-14 06:53:00
2:12 AM,57.2,48.2,72,29.74,10.0,SSW,4.6,-,N/A,,Clear,210,2013-05-14 07:12:00
2:33 AM,57.2,48.2,72,29.74,10.0,Calm,Calm,-,N/A,,Clear,0,2013-05-14 07:33:00
2:52 AM,55.4,46.4,72,29.74,10.0,Calm,Calm,-,N/A,,Clear,0,2013-05-14 07:52:00
3:13 AM,57.2,46.4,67,29.74,10.0,Calm,Calm,-,N/A,,Clear,0,2013-05-14 08:13:00
3:32 AM,55.4,46.4,72,29.74,10.0,Calm,Calm,-,N/A,,Clear,0,2013-05-14 08:32:00
3:52 AM,53.6,46.4,77,29.73,10.0,Calm,Calm,-,N/A,,Clear,0,2013-05-14 08:52:00
4:13 AM,53.6,48.2,82,29.73,10.0,South,4.6,-,N/A,,Clear,190,2013-05-14 09:13:00
4:52 AM,53.6,46.4,77,29.71,10.0,Calm,Calm,-,N/A,,Clear,0,2013-05-14 09:52:00
5:13 AM,53.6,46.4,77,29.71,10.0,South,4.6,-,N/A,,Clear,190,2013-05-14 10:13:00
5:32 AM,53.6,46.4,77,29.72,10.0,SSW,8.1,-,N/A,,Clear,200,2013-05-14 10:32:00
5:53 AM,55.4,46.4,72,29.72,10.0,SSW,5.8,-,N/A,,Clear,200,2013-05-14 10:53:00
6:13 AM,57.2,46.4,67,29.72,10.0,SSW,5.8,-,N/A,,Clear,200,2013-05-14 11:13:00
6:32 AM,59.0,46.4,63,29.71,10.0,SSW,8.1,-,N/A,,Clear,200,2013-05-14 11:32:00
6:53 AM,60.8,46.4,59,29.71,10.0,South,3.5,-,N/A,,Clear,190,2013-05-14 11:53:00
7:12 AM,60.8,48.2,63,29.70,10.0,SSE,3.5,-,N/A,,Clear,160,2013-05-14 12:12:00
7:32 AM,64.4,48.2,56,29.69,10.0,South,4.6,-,N/A,,Clear,180,2013-05-14 12:32:00
7:52 AM,66.2,48.2,52,29.68,10.0,SSE,4.6,-,N/A,,Clear,160,2013-05-14 12:52:00
8:12 AM,71.6,48.2,43,29.67,10.0,South,8.1,-,N/A,,Clear,180,2013-05-14 13:12:00
8:32 AM,75.2,48.2,38,29.65,10.0,South,9.2,-,N/A,,Clear,170,2013-05-14 13:32:00
8:52 AM,78.8,48.2,34,29.64,10.0,South,12.7,-,N/A,,Clear,180,2013-05-14 13:52:00
9:13 AM,80.6,48.2,32,29.63,10.0,SSE,9.2,-,N/A,,Clear,160,2013-05-14 14:13:00
9:32 AM,84.2,46.4,27,29.62,10.0,South,15.0,23.0,N/A,,Unknown,170,2013-05-14 14:32:00
9:52 AM,86.0,46.4,25,29.61,10.0,South,20.7,29.9,N/A,,Unknown,190,2013-05-14 14:52:00
10:13 AM,86.0,48.2,27,29.60,10.0,South,20.7,26.5,N/A,,Clear,190,2013-05-14 15:13:00
10:32 AM,87.8,46.4,24,29.59,10.0,South,21.9,29.9,N/A,,Clear,190,2013-05-14 15:32:00
10:52 AM,89.6,46.4,22,29.59,10.0,SSW,26.5,29.9,N/A,,Clear,200,2013-05-14 15:52:00
11:13 AM,93.2,44.6,19,29.60,10.0,SW,23.0,27.6,N/A,,Clear,220,2013-05-14 16:13:00
11:32 AM,91.4,42.8,18,29.59,10.0,SSW,24.2,27.6,N/A,,Clear,210,2013-05-14 16:32:00
11:52 AM,95.0,42.8,16,29.58,10.0,SW,23.0,38.0,N/A,,Clear,230,2013-05-14 16:52:00
12:13 PM,96.8,42.8,16,29.56,10.0,SSW,26.5,31.1,N/A,,Clear,210,2013-05-14 17:13:00
12:33 PM,98.6,42.8,15,29.55,10.0,SSW,27.6,35.7,N/A,,Clear,210,2013-05-14 17:33:00
12:52 PM,98.6,41.0,14,29.54,10.0,WSW,25.3,34.5,N/A,,Clear,240,2013-05-14 17:52:00
1:13 PM,-9999,-9999,N/A,29.54,10.0,WSW,32.2,36.8,N/A,,Clear,250,2013-05-14 18:13:00
1:33 PM,-9999,-9999,N/A,29.54,10.0,WSW,29.9,34.5,N/A,,Clear,250,2013-05-14 18:33:00
1:52 PM,-9999,-9999,N/A,29.55,10.0,WSW,26.5,35.7,N/A,,Clear,250,2013-05-14 18:52:00
2:13 PM,-9999,-9999,N/A,29.56,10.0,West,23.0,27.6,N/A,,Clear,260,2013-05-14 19:13:00
2:33 PM,-9999,-9999,N/A,29.56,10.0,WNW,27.6,36.8,N/A,,Clear,290,2013-05-14 19:33:00
2:52 PM,-9999,-9999,N/A,29.57,10.0,WNW,21.9,34.5,N/A,,Clear,290,2013-05-14 19:52:00
3:13 PM,-9999,-9999,N/A,29.57,10.0,WNW,21.9,34.5,N/A,,Clear,290,2013-05-14 20:13:00
3:33 PM,-9999,-9999,N/A,29.57,10.0,NW,21.9,33.4,N/A,,Clear,310,2013-05-14 20:33:00
3:52 PM,-9999,-9999,N/A,29.58,10.0,NW,23.0,28.8,N/A,,Clear,320,2013-05-14 20:52:00
4:12 PM,-9999,-9999,N/A,29.58,10.0,NW,27.6,-,N/A,,Clear,310,2013-05-14 21:12:00
4:33 PM,-9999,-9999,N/A,29.59,10.0,NW,21.9,26.5,N/A,,Clear,320,2013-05-14 21:33:00
4:52 PM,-9999,-9999,N/A,29.59,10.0,WNW,25.3,35.7,N/A,,Clear,300,2013-05-14 21:52:00
5:12 PM,-9999,-9999,N/A,29.60,10.0,NW,25.3,32.2,N/A,,Clear,310,2013-05-14 22:12:00
5:33 PM,-9999,-9999,N/A,29.61,10.0,NW,24.2,35.7,N/A,,Clear,310,2013-05-14 22:33:00
5:52 PM,-9999,-9999,N/A,29.62,10.0,NW,23.0,39.1,N/A,,Clear,320,2013-05-14 22:52:00
6:12 PM,-9999,-9999,N/A,29.62,10.0,NW,26.5,34.5,N/A,,Clear,320,2013-05-14 23:12:00
6:33 PM,-9999,-9999,N/A,29.63,10.0,NW,26.5,33.4,N/A,,Clear,320,2013-05-14 23:33:00
6:52 PM,-9999,-9999,N/A,29.64,10.0,NW,25.3,34.5,N/A,,Clear,310,2013-05-14 23:52:00
7:12 PM,-9999,-9999,N/A,29.65,10.0,NW,25.3,32.2,N/A,,Clear,310,2013-05-15 00:12:00
7:33 PM,-9999,-9999,N/A,29.66,10.0,NW,21.9,27.6,N/A,,Clear,310,2013-05-15 00:33:00
7:52 PM,-9999,-9999,N/A,29.67,10.0,NW,20.7,27.6,N/A,,Clear,310,2013-05-15 00:52:00
8:12 PM,-9999,-9999,N/A,29.68,10.0,NW,19.6,28.8,N/A,,Clear,320,2013-05-15 01:12:00
8:33 PM,-9999,-9999,N/A,29.68,10.0,NW,15.0,24.2,N/A,,Clear,310,2013-05-15 01:33:00
8:52 PM,-9999,-9999,N/A,29.69,10.0,NW,13.8,-,N/A,,Clear,320,2013-05-15 01:52:00
9:12 PM,-9999,-9999,N/A,29.70,10.0,NW,9.2,-,N/A,,Clear,310,2013-05-15 02:12:00
9:33 PM,-9999,-9999,N/A,29.72,10.0,WNW,10.4,-,N/A,,Clear,300,2013-05-15 02:33:00
9:52 PM,-9999,-9999,N/A,29.73,10.0,WNW,9.2,-,N/A,,Clear,300,2013-05-15 02:52:00
10:12 PM,-9999,-9999,N/A,29.74,10.0,NW,16.1,-,N/A,,Clear,310,2013-05-15 03:12:00
10:33 PM,-9999,-9999,N/A,29.75,10.0,NW,20.7,-,N/A,,Clear,320,2013-05-15 03:33:00
10:52 PM,-9999,-9999,N/A,29.76,10.0,NW,18.4,-,N/A,,Clear,320,2013-05-15 03:52:00
11:12 PM,-9999,-9999,N/A,29.77,10.0,NW,20.7,25.3,N/A,,Clear,320,2013-05-15 04:12:00
11:33 PM,-9999,-9999,N/A,29.78,10.0,NW,29.9,34.5,N/A,,Clear,320,2013-05-15 04:33:00
11:52 PM,-9999,-9999,N/A,29.79,10.0,NNW,25.3,33.4,N/A,,Clear,330,2013-05-15 04:52:00